Torna al catalogo

CZ-4B DEB

AttivoSSO
NORAD 44593·DEBRIS·🇨🇳 China

Lanciato Oct 25, 2008 da Taiyuan Satellite Launch Center

Loading…

Prossimi Passaggi (prossime 24 ore)

TLE

AggiornatoSource: Space-Track

Epoca: Sep 12, 2026, 07:52 UTC

1 44593U 08053M   26255.32798845  .00001117  00000-0  74801-4 0  9991
2 44593  97.8129 285.1710 0017917 334.6606  25.3741 15.08951163700794

Traccia CZ-4B DEB in tempo reale con AllMySat

Download on the App Store